Time,TemperatureF,DewpointF,PressureIn,WindDirection,WindDirectionDegrees,WindSpeedMPH,WindSpeedGustMPH,Humidity,HourlyPrecipIn,Conditions,Clouds,dailyrainin,SoftwareType,DateUTC
2017-04-26 00:01:00,67.8,56.0,29.80,NW,308,0.0,1.0,66,0.00,,---,0.00,VWS V14.01,2017-04-26 04:01:00,
2017-04-26 00:06:00,67.6,55.8,29.80,NW,308,0.0,1.0,66,0.00,,---,0.00,VWS V14.01,2017-04-26 04:06:00,
2017-04-26 00:11:00,67.6,55.8,29.81,NW,308,0.0,1.0,66,0.00,,---,0.00,VWS V14.01,2017-04-26 04:11:00,
2017-04-26 00:16:00,67.6,55.8,29.81,NW,308,0.0,1.0,66,0.00,,---,0.00,VWS V14.01,2017-04-26 04:16:00,
2017-04-26 00:21:00,67.6,55.8,29.81,NW,308,0.0,1.0,66,0.00,,---,0.00,VWS V14.01,2017-04-26 04:21:00,
2017-04-26 00:26:00,67.6,56.3,29.81,NNW,343,1.0,1.0,67,0.00,,---,0.00,VWS V14.01,2017-04-26 04:26:00,
2017-04-26 00:31:00,67.4,55.7,29.81,NNW,343,0.0,1.0,66,0.00,,---,0.00,VWS V14.01,2017-04-26 04:31:00,
2017-04-26 00:36:00,67.3,56.0,29.81,NNW,343,0.0,1.0,67,0.00,,---,0.00,VWS V14.01,2017-04-26 04:36:00,
2017-04-26 00:41:00,67.1,55.8,29.82,SE,141,0.0,2.0,67,0.00,,---,0.00,VWS V14.01,2017-04-26 04:41:00,
2017-04-26 00:46:00,66.9,56.0,29.82,SE,141,0.0,2.0,68,0.00,,---,0.00,VWS V14.01,2017-04-26 04:46:00,
2017-04-26 00:51:00,66.8,55.9,29.82,SE,141,1.0,2.0,68,0.00,,---,0.00,VWS V14.01,2017-04-26 04:51:00,
2017-04-26 00:56:00,66.8,55.9,29.82,SSE,151,0.0,0.0,68,0.00,,---,0.00,VWS V14.01,2017-04-26 04:56:00,
2017-04-26 01:01:00,66.6,56.1,29.82,SSE,151,0.0,0.0,69,0.00,,---,0.00,VWS V14.01,2017-04-26 05:01:00,
2017-04-26 01:06:00,66.6,56.1,29.82,ESE,103,0.0,1.0,69,0.00,,---,0.00,VWS V14.01,2017-04-26 05:06:00,
2017-04-26 01:11:00,66.4,55.9,29.82,ESE,103,0.0,1.0,69,0.00,,---,0.00,VWS V14.01,2017-04-26 05:11:00,
2017-04-26 01:16:00,66.3,56.2,29.82,ESE,103,0.0,1.0,70,0.00,,---,0.00,VWS V14.01,2017-04-26 05:16:00,
2017-04-26 01:21:00,66.1,56.4,29.82,SSE,152,0.0,2.0,71,0.00,,---,0.00,VWS V14.01,2017-04-26 05:21:00,
2017-04-26 01:26:00,66.1,56.4,29.82,SE,130,0.0,3.0,71,0.00,,---,0.00,VWS V14.01,2017-04-26 05:26:00,
2017-04-26 01:31:00,66.1,56.4,29.82,SE,130,0.0,3.0,71,0.00,,---,0.00,VWS V14.01,2017-04-26 05:31:00,
2017-04-26 01:36:00,66.0,56.0,29.82,SE,130,0.0,3.0,70,0.00,,---,0.00,VWS V14.01,2017-04-26 05:36:00,
2017-04-26 01:41:00,66.0,56.3,29.82,SE,141,0.0,3.0,71,0.00,,---,0.00,VWS V14.01,2017-04-26 05:41:00,
2017-04-26 01:46:00,65.8,56.2,29.82,SE,141,0.0,3.0,71,0.00,,---,0.00,VWS V14.01,2017-04-26 05:46:00,
2017-04-26 01:51:00,65.8,56.2,29.82,SE,141,0.0,3.0,71,0.00,,---,0.00,VWS V14.01,2017-04-26 05:51:00,
2017-04-26 01:56:00,65.6,56.3,29.81,SE,141,0.0,0.0,72,0.00,,---,0.00,VWS V14.01,2017-04-26 05:56:00,
2017-04-26 02:01:00,65.5,56.2,29.81,SE,141,0.0,0.0,72,0.00,,---,0.00,VWS V14.01,2017-04-26 06:01:00,
2017-04-26 02:06:00,65.3,56.0,29.81,SE,141,0.0,0.0,72,0.00,,---,0.00,VWS V14.01,2017-04-26 06:06:00,
2017-04-26 02:11:00,65.3,56.4,29.81,SE,141,0.0,0.0,73,0.00,,---,0.00,VWS V14.01,2017-04-26 06:11:00,
2017-04-26 02:16:00,65.2,56.7,29.81,SE,141,0.0,0.0,74,0.00,,---,0.00,VWS V14.01,2017-04-26 06:16:00,
2017-04-26 02:21:00,65.0,56.5,29.81,SE,141,0.0,0.0,74,0.00,,---,0.00,VWS V14.01,2017-04-26 06:21:00,
2017-04-26 02:26:00,65.0,56.9,29.81,SE,141,0.0,0.0,75,0.00,,---,0.00,VWS V14.01,2017-04-26 06:26:00,
2017-04-26 02:31:00,65.0,56.9,29.81,SE,141,0.0,1.0,75,0.00,,---,0.00,VWS V14.01,2017-04-26 06:31:00,
2017-04-26 02:36:00,65.0,56.9,29.81,SE,141,0.0,1.0,75,0.00,,---,0.00,VWS V14.01,2017-04-26 06:36:00,
2017-04-26 02:41:00,64.8,57.1,29.80,SE,141,0.0,1.0,76,0.00,,---,0.00,VWS V14.01,2017-04-26 06:41:00,
2017-04-26 02:46:00,64.8,57.1,29.80,SE,141,0.0,1.0,76,0.00,,---,0.00,VWS V14.01,2017-04-26 06:46:00,
2017-04-26 02:51:00,64.7,57.3,29.80,SE,141,0.0,1.0,77,0.00,,---,0.00,VWS V14.01,2017-04-26 06:51:00,
2017-04-26 02:56:00,64.7,57.3,29.80,SE,141,0.0,0.0,77,0.00,,---,0.00,VWS V14.01,2017-04-26 06:56:00,
2017-04-26 03:01:00,64.5,57.1,29.80,SE,141,0.0,0.0,77,0.00,,---,0.00,VWS V14.01,2017-04-26 07:01:00,
2017-04-26 03:06:00,64.5,57.1,29.80,SE,141,0.0,0.0,77,0.00,,---,0.00,VWS V14.01,2017-04-26 07:06:00,
2017-04-26 03:11:00,64.3,57.0,29.80,SE,141,0.0,0.0,77,0.00,,---,0.00,VWS V14.01,2017-04-26 07:11:00,
2017-04-26 03:16:00,64.2,57.2,29.80,SE,141,0.0,0.0,78,0.00,,---,0.00,VWS V14.01,2017-04-26 07:16:00,
2017-04-26 03:21:00,64.0,57.0,29.80,SE,141,0.0,0.0,78,0.00,,---,0.00,VWS V14.01,2017-04-26 07:21:00,
2017-04-26 03:26:00,63.9,56.9,29.80,SE,141,0.0,0.0,78,0.00,,---,0.00,VWS V14.01,2017-04-26 07:26:00,
2017-04-26 03:31:00,63.7,57.1,29.80,SE,141,0.0,0.0,79,0.00,,---,0.00,VWS V14.01,2017-04-26 07:31:00,
2017-04-26 03:36:00,63.5,56.9,29.80,SE,141,0.0,0.0,79,0.00,,---,0.00,VWS V14.01,2017-04-26 07:36:00,
2017-04-26 03:41:00,63.5,57.2,29.79,SE,141,0.0,0.0,80,0.00,,---,0.00,VWS V14.01,2017-04-26 07:41:00,
2017-04-26 03:46:00,63.4,57.1,29.79,SE,141,0.0,0.0,80,0.00,,---,0.00,VWS V14.01,2017-04-26 07:46:00,
2017-04-26 03:51:00,63.2,57.3,29.79,SE,141,0.0,0.0,81,0.00,,---,0.00,VWS V14.01,2017-04-26 07:51:00,
2017-04-26 03:56:00,63.1,57.2,29.80,SE,141,0.0,0.0,81,0.00,,---,0.00,VWS V14.01,2017-04-26 07:56:00,
2017-04-26 04:01:00,62.9,57.3,29.80,SE,141,0.0,0.0,82,0.00,,---,0.00,VWS V14.01,2017-04-26 08:01:00,
2017-04-26 04:06:00,62.7,57.1,29.80,SE,141,0.0,0.0,82,0.00,,---,0.00,VWS V14.01,2017-04-26 08:06:00,
2017-04-26 04:11:00,62.6,57.4,29.79,SE,141,0.0,0.0,83,0.00,,---,0.00,VWS V14.01,2017-04-26 08:11:00,
2017-04-26 04:16:00,62.3,57.4,29.79,SE,141,0.0,0.0,84,0.00,,---,0.00,VWS V14.01,2017-04-26 08:16:00,
2017-04-26 04:21:00,62.1,57.2,29.79,SE,141,0.0,0.0,84,0.00,,---,0.00,VWS V14.01,2017-04-26 08:21:00,
2017-04-26 04:26:00,62.0,57.5,29.79,SE,141,0.0,0.0,85,0.00,,---,0.00,VWS V14.01,2017-04-26 08:26:00,
2017-04-26 04:31:00,61.8,57.2,29.79,SE,141,0.0,0.0,85,0.00,,---,0.00,VWS V14.01,2017-04-26 08:31:00,
2017-04-26 04:36:00,61.6,57.4,29.79,SE,141,0.0,0.0,86,0.00,,---,0.00,VWS V14.01,2017-04-26 08:36:00,
2017-04-26 04:41:00,61.5,57.3,29.80,SE,141,0.0,0.0,86,0.00,,---,0.00,VWS V14.01,2017-04-26 08:41:00,
2017-04-26 04:46:00,61.3,57.1,29.80,SE,141,0.0,0.0,86,0.00,,---,0.00,VWS V14.01,2017-04-26 08:46:00,
2017-04-26 04:51:00,61.2,57.3,29.80,SE,141,0.0,0.0,87,0.00,,---,0.00,VWS V14.01,2017-04-26 08:51:00,
2017-04-26 04:56:00,61.2,57.3,29.79,SE,141,0.0,0.0,87,0.00,,---,0.00,VWS V14.01,2017-04-26 08:56:00,
2017-04-26 05:01:00,61.0,57.1,29.79,SE,141,0.0,0.0,87,0.00,,---,0.00,VWS V14.01,2017-04-26 09:01:00,
2017-04-26 05:06:00,60.9,57.3,29.79,SE,141,0.0,0.0,88,0.00,,---,0.00,VWS V14.01,2017-04-26 09:06:00,
2017-04-26 05:11:00,60.7,57.1,29.80,SE,141,0.0,0.0,88,0.00,,---,0.00,VWS V14.01,2017-04-26 09:11:00,
2017-04-26 05:16:00,60.7,57.4,29.80,SSE,157,0.0,2.0,89,0.00,,---,0.00,VWS V14.01,2017-04-26 09:16:00,
2017-04-26 05:21:00,60.5,57.2,29.80,SSE,157,0.0,2.0,89,0.00,,---,0.00,VWS V14.01,2017-04-26 09:21:00,
2017-04-26 05:26:00,60.5,57.2,29.80,SSE,157,0.0,0.0,89,0.00,,---,0.00,VWS V14.01,2017-04-26 09:26:00,
2017-04-26 05:31:00,60.4,57.2,29.80,SSE,157,0.0,0.0,89,0.00,,---,0.00,VWS V14.01,2017-04-26 09:31:00,
2017-04-26 05:36:00,60.1,57.2,29.80,SSE,157,0.0,0.0,90,0.00,,---,0.00,VWS V14.01,2017-04-26 09:36:00,
2017-04-26 05:41:00,60.1,57.2,29.80,SSE,157,0.0,1.0,90,0.00,,---,0.00,VWS V14.01,2017-04-26 09:41:00,
2017-04-26 05:46:00,59.9,57.0,29.80,SSE,157,0.0,1.0,90,0.00,,---,0.00,VWS V14.01,2017-04-26 09:46:00,
2017-04-26 05:51:00,59.9,57.0,29.80,SSE,157,0.0,1.0,90,0.00,,---,0.00,VWS V14.01,2017-04-26 09:51:00,
2017-04-26 05:56:00,59.9,57.0,29.81,SSE,157,0.0,0.0,90,0.00,,---,0.00,VWS V14.01,2017-04-26 09:56:00,
2017-04-26 06:01:00,59.8,56.9,29.81,SSE,157,0.0,0.0,90,0.00,,---,0.00,VWS V14.01,2017-04-26 10:01:00,
2017-04-26 06:06:00,59.8,56.9,29.81,SSE,157,0.0,0.0,90,0.00,,---,0.00,VWS V14.01,2017-04-26 10:06:00,
2017-04-26 06:11:00,59.8,57.2,29.81,SSE,157,0.0,0.0,91,0.00,,---,0.00,VWS V14.01,2017-04-26 10:11:00,
2017-04-26 06:16:00,59.6,57.0,29.81,SSE,157,0.0,0.0,91,0.00,,---,0.00,VWS V14.01,2017-04-26 10:16:00,
2017-04-26 06:21:00,59.6,57.0,29.81,SSE,157,0.0,0.0,91,0.00,,---,0.00,VWS V14.01,2017-04-26 10:21:00,
2017-04-26 06:26:00,59.5,56.9,29.81,SSE,157,0.0,0.0,91,0.00,,---,0.00,VWS V14.01,2017-04-26 10:26:00,
2017-04-26 06:31:00,59.5,56.9,29.81,SSE,157,0.0,0.0,91,0.00,,---,0.00,VWS V14.01,2017-04-26 10:31:00,
2017-04-26 06:36:00,59.3,56.7,29.81,SSE,157,0.0,0.0,91,0.00,,---,0.00,VWS V14.01,2017-04-26 10:36:00,
2017-04-26 06:41:00,59.2,56.6,29.81,SSE,157,0.0,0.0,91,0.00,,---,0.00,VWS V14.01,2017-04-26 10:41:00,
2017-04-26 06:46:00,59.2,56.9,29.81,SSE,157,0.0,0.0,92,0.00,,---,0.00,VWS V14.01,2017-04-26 10:46:00,
2017-04-26 06:51:00,59.0,56.7,29.81,SSE,157,0.0,0.0,92,0.00,,---,0.00,VWS V14.01,2017-04-26 10:51:00,
2017-04-26 06:56:00,59.0,56.7,29.82,SSE,157,0.0,0.0,92,0.00,,---,0.00,VWS V14.01,2017-04-26 10:56:00,
2017-04-26 07:01:00,58.9,56.6,29.82,SSE,157,0.0,0.0,92,0.00,,---,0.00,VWS V14.01,2017-04-26 11:01:00,
2017-04-26 07:06:00,58.9,56.9,29.82,SSE,157,0.0,0.0,93,0.00,,---,0.00,VWS V14.01,2017-04-26 11:06:00,
2017-04-26 07:11:00,58.9,56.9,29.83,SSE,157,0.0,0.0,93,0.00,,---,0.00,VWS V14.01,2017-04-26 11:11:00,
2017-04-26 07:16:00,58.9,57.2,29.83,SSE,157,0.0,0.0,94,0.00,,---,0.00,VWS V14.01,2017-04-26 11:16:00,
2017-04-26 07:21:00,58.9,56.9,29.83,SSE,157,0.0,0.0,93,0.00,,---,0.00,VWS V14.01,2017-04-26 11:21:00,
2017-04-26 07:26:00,58.9,57.2,29.83,SSE,157,0.0,0.0,94,0.00,,---,0.00,VWS V14.01,2017-04-26 11:26:00,
2017-04-26 07:31:00,59.0,57.3,29.83,SSE,157,0.0,0.0,94,0.00,,---,0.00,VWS V14.01,2017-04-26 11:31:00,
2017-04-26 07:36:00,59.2,57.5,29.83,SSE,157,0.0,0.0,94,0.00,,---,0.00,VWS V14.01,2017-04-26 11:36:00,
2017-04-26 07:37:00,59.2,57.5,29.83,SSE,157,0.0,0.0,94,0.00,,---,0.00,VWS V14.01,2017-04-26 11:37:00,
2017-04-26 07:42:00,59.6,58.2,29.83,SSE,157,0.0,0.0,95,0.00,,---,0.00,VWS V14.01,2017-04-26 11:42:00,
2017-04-26 07:47:00,59.9,58.5,29.83,SSE,157,0.0,0.0,95,0.00,,---,0.00,VWS V14.01,2017-04-26 11:47:00,
2017-04-26 07:52:00,60.4,58.7,29.83,South,186,0.0,1.0,94,0.00,,---,0.00,VWS V14.01,2017-04-26 11:52:00,
2017-04-26 07:57:00,60.9,59.2,29.85,South,186,0.0,0.0,94,0.00,,---,0.00,VWS V14.01,2017-04-26 11:57:00,
2017-04-26 08:02:00,61.3,59.6,29.85,South,186,0.0,0.0,94,0.00,,---,0.00,VWS V14.01,2017-04-26 12:02:00,
2017-04-26 08:06:00,61.8,59.8,29.85,South,186,0.0,1.0,93,0.00,,---,0.00,VWS V14.01,2017-04-26 12:06:00,
2017-04-26 08:11:00,62.1,60.1,29.85,South,186,0.0,1.0,93,0.00,,---,0.00,VWS V14.01,2017-04-26 12:11:00,
2017-04-26 08:16:00,62.6,60.2,29.85,ESE,117,0.0,1.0,92,0.00,,---,0.00,VWS V14.01,2017-04-26 12:16:00,
2017-04-26 08:21:00,63.1,60.4,29.85,ESE,117,0.0,1.0,91,0.00,,---,0.00,VWS V14.01,2017-04-26 12:21:00,
2017-04-26 08:26:00,63.5,60.5,29.85,ESE,117,0.0,1.0,90,0.00,,---,0.00,VWS V14.01,2017-04-26 12:26:00,
2017-04-26 08:31:00,64.0,60.7,29.85,SE,134,0.0,2.0,89,0.00,,---,0.00,VWS V14.01,2017-04-26 12:31:00,
2017-04-26 08:36:00,64.3,60.7,29.85,SE,134,0.0,2.0,88,0.00,,---,0.00,VWS V14.01,2017-04-26 12:36:00,
2017-04-26 08:41:00,64.8,60.8,29.85,SE,140,0.0,2.0,87,0.00,,---,0.00,VWS V14.01,2017-04-26 12:41:00,
2017-04-26 08:46:00,65.3,61.0,29.85,SSE,155,1.0,2.0,86,0.00,,---,0.00,VWS V14.01,2017-04-26 12:46:00,
2017-04-26 08:51:00,66.0,61.4,29.85,SSW,196,1.0,2.0,85,0.00,,---,0.00,VWS V14.01,2017-04-26 12:51:00,
2017-04-26 08:56:00,66.6,61.3,29.85,South,171,0.0,0.0,83,0.00,,---,0.00,VWS V14.01,2017-04-26 12:56:00,
2017-04-26 09:01:00,66.9,60.9,29.85,SSE,167,0.0,2.0,81,0.00,,---,0.00,VWS V14.01,2017-04-26 13:01:00,
2017-04-26 09:06:00,67.9,61.9,29.85,SSW,192,0.0,2.0,81,0.00,,---,0.00,VWS V14.01,2017-04-26 13:06:00,
2017-04-26 09:11:00,68.3,61.2,29.85,South,175,0.0,3.0,78,0.00,,---,0.00,VWS V14.01,2017-04-26 13:11:00,
2017-04-26 09:16:00,68.8,61.3,29.85,South,174,1.0,3.0,77,0.00,,---,0.00,VWS V14.01,2017-04-26 13:16:00,
2017-04-26 09:21:00,69.3,61.8,29.85,South,191,0.0,3.0,77,0.00,,---,0.00,VWS V14.01,2017-04-26 13:21:00,
2017-04-26 09:26:00,69.8,61.9,29.85,South,191,0.0,0.0,76,0.00,,---,0.00,VWS V14.01,2017-04-26 13:26:00,
2017-04-26 09:31:00,70.1,61.4,29.85,SW,215,1.0,2.0,74,0.00,,---,0.00,VWS V14.01,2017-04-26 13:31:00,
2017-04-26 09:36:00,70.9,62.2,29.85,SSE,162,3.0,3.0,74,0.00,,---,0.00,VWS V14.01,2017-04-26 13:36:00,
2017-04-26 09:41:00,71.5,62.8,29.85,West,280,1.0,3.0,74,0.00,,---,0.00,VWS V14.01,2017-04-26 13:41:00,
2017-04-26 09:46:00,71.6,62.5,29.85,South,176,1.0,3.0,73,0.00,,---,0.00,VWS V14.01,2017-04-26 13:46:00,
2017-04-26 09:51:00,72.0,62.9,29.85,SSW,210,0.0,3.0,73,0.00,,---,0.00,VWS V14.01,2017-04-26 13:51:00,
2017-04-26 09:56:00,72.3,62.8,29.86,SE,143,0.0,2.0,72,0.00,,---,0.00,VWS V14.01,2017-04-26 13:56:00,
2017-04-26 10:01:00,72.8,63.3,29.86,WSW,254,1.0,3.0,72,0.00,,---,0.00,VWS V14.01,2017-04-26 14:01:00,
2017-04-26 10:06:00,73.5,63.9,29.86,WNW,302,1.0,3.0,72,0.00,,---,0.00,VWS V14.01,2017-04-26 14:06:00,
2017-04-26 10:11:00,73.9,62.7,29.86,SE,140,6.0,6.0,68,0.00,,---,0.00,VWS V14.01,2017-04-26 14:11:00,
2017-04-26 10:16:00,73.9,62.7,29.86,South,182,0.0,6.0,68,0.00,,---,0.00,VWS V14.01,2017-04-26 14:16:00,
2017-04-26 10:21:00,74.4,63.6,29.86,ENE,59,0.0,6.0,69,0.00,,---,0.00,VWS V14.01,2017-04-26 14:21:00,
2017-04-26 10:26:00,74.4,61.4,29.86,WNW,295,1.0,3.0,64,0.00,,---,0.00,VWS V14.01,2017-04-26 14:26:00,
2017-04-26 10:31:00,74.6,62.1,29.86,SSE,152,1.0,3.0,65,0.00,,---,0.00,VWS V14.01,2017-04-26 14:31:00,
2017-04-26 10:36:00,74.6,61.6,29.86,SSE,165,0.0,3.0,64,0.00,,---,0.00,VWS V14.01,2017-04-26 14:36:00,
2017-04-26 10:41:00,75.6,63.0,29.86,NW,312,0.0,3.0,65,0.00,,---,0.00,VWS V14.01,2017-04-26 14:41:00,
2017-04-26 10:46:00,75.8,62.8,29.86,SSE,147,1.0,3.0,64,0.00,,---,0.00,VWS V14.01,2017-04-26 14:46:00,
2017-04-26 10:51:00,74.9,61.9,29.86,SE,133,3.0,3.0,64,0.00,,---,0.00,VWS V14.01,2017-04-26 14:51:00,
2017-04-26 10:56:00,74.2,61.2,29.87,SSE,167,0.0,1.0,64,0.00,,---,0.00,VWS V14.01,2017-04-26 14:56:00,
2017-04-26 11:01:00,74.6,62.1,29.87,SE,136,2.0,4.0,65,0.00,,---,0.00,VWS V14.01,2017-04-26 15:01:00,
2017-04-26 11:06:00,75.1,62.1,29.87,South,175,1.0,4.0,64,0.00,,---,0.00,VWS V14.01,2017-04-26 15:06:00,
2017-04-26 11:11:00,74.9,62.3,29.87,West,281,0.0,4.0,65,0.00,,---,0.00,VWS V14.01,2017-04-26 15:11:00,
2017-04-26 11:16:00,75.1,62.1,29.87,WNW,292,0.0,4.0,64,0.00,,---,0.00,VWS V14.01,2017-04-26 15:16:00,
2017-04-26 11:21:00,76.0,61.1,29.87,WSW,258,0.0,4.0,60,0.00,,---,0.00,VWS V14.01,2017-04-26 15:21:00,
2017-04-26 11:26:00,76.3,60.9,29.88,ESE,104,0.0,2.0,59,0.00,,---,0.00,VWS V14.01,2017-04-26 15:26:00,
2017-04-26 11:31:00,76.7,60.3,29.88,SE,124,2.0,6.0,57,0.00,,---,0.00,VWS V14.01,2017-04-26 15:31:00,
2017-04-26 11:36:00,77.0,60.6,29.88,East,97,1.0,6.0,57,0.00,,---,0.00,VWS V14.01,2017-04-26 15:36:00,
2017-04-26 11:41:00,77.6,59.7,29.88,WSW,251,0.0,6.0,54,0.00,,---,0.00,VWS V14.01,2017-04-26 15:41:00,
2017-04-26 11:46:00,78.3,59.8,29.88,SW,233,0.0,6.0,53,0.00,,---,0.00,VWS V14.01,2017-04-26 15:46:00,
2017-04-26 11:47:00,78.5,60.0,29.88,WNW,284,1.0,6.0,53,0.00,,---,0.00,VWS V14.01,2017-04-26 15:47:00,
2017-04-26 11:52:00,78.1,60.1,29.88,WNW,285,3.0,6.0,54,0.00,,---,0.00,VWS V14.01,2017-04-26 15:52:00,
2017-04-26 11:57:00,78.3,60.3,29.88,SE,130,1.0,2.0,54,0.00,,---,0.00,VWS V14.01,2017-04-26 15:57:00,
2017-04-26 12:02:00,78.1,60.1,29.88,SW,216,0.0,3.0,54,0.00,,---,0.00,VWS V14.01,2017-04-26 16:02:00,
2017-04-26 12:07:00,78.3,60.3,29.88,South,184,2.0,3.0,54,0.00,,---,0.00,VWS V14.01,2017-04-26 16:07:00,
2017-04-26 12:12:00,77.7,58.2,29.88,SSE,155,1.0,3.0,51,0.00,,---,0.00,VWS V14.01,2017-04-26 16:12:00,
2017-04-26 12:17:00,77.7,57.6,29.88,ENE,59,0.0,4.0,50,0.00,,---,0.00,VWS V14.01,2017-04-26 16:17:00,
2017-04-26 12:22:00,78.5,58.9,29.88,WNW,298,0.0,4.0,51,0.00,,---,0.00,VWS V14.01,2017-04-26 16:22:00,
2017-04-26 12:27:00,78.3,59.2,29.87,South,182,1.0,3.0,52,0.00,,---,0.00,VWS V14.01,2017-04-26 16:27:00,
2017-04-26 12:32:00,77.4,57.3,29.87,WNW,292,0.0,6.0,50,0.00,,---,0.00,VWS V14.01,2017-04-26 16:32:00,
2017-04-26 12:37:00,77.0,58.6,29.87,West,268,0.0,6.0,53,0.00,,---,0.00,VWS V14.01,2017-04-26 16:37:00,
2017-04-26 12:42:00,77.4,59.0,29.87,West,275,0.0,6.0,53,0.00,,---,0.00,VWS V14.01,2017-04-26 16:42:00,
2017-04-26 12:47:00,78.1,60.1,29.87,SSE,162,3.0,6.0,54,0.00,,---,0.00,VWS V14.01,2017-04-26 16:47:00,
2017-04-26 12:52:00,78.6,56.7,29.87,SSE,164,2.0,6.0,47,0.00,,---,0.00,VWS V14.01,2017-04-26 16:52:00,
2017-04-26 12:57:00,78.6,57.3,29.86,WSW,241,1.0,2.0,48,0.00,,---,0.00,VWS V14.01,2017-04-26 16:57:00,
2017-04-26 13:02:00,78.5,59.4,29.86,SSE,164,0.0,2.0,52,0.00,,---,0.00,VWS V14.01,2017-04-26 17:02:00,
2017-04-26 13:07:00,79.4,58.0,29.86,NE,47,2.0,6.0,48,0.00,,---,0.00,VWS V14.01,2017-04-26 17:07:00,
2017-04-26 13:12:00,80.1,60.9,29.85,NW,305,2.0,6.0,52,0.00,,---,0.00,VWS V14.01,2017-04-26 17:12:00,
2017-04-26 13:17:00,80.3,58.2,29.85,West,277,0.0,6.0,47,0.00,,---,0.00,VWS V14.01,2017-04-26 17:17:00,
2017-04-26 13:22:00,80.5,57.8,29.85,ESE,116,2.0,6.0,46,0.00,,---,0.00,VWS V14.01,2017-04-26 17:22:00,
2017-04-26 13:27:00,81.1,59.6,29.85,East,99,0.0,1.0,48,0.00,,---,0.00,VWS V14.01,2017-04-26 17:27:00,
2017-04-26 13:32:00,81.4,58.0,29.85,WSW,254,1.0,5.0,45,0.00,,---,0.00,VWS V14.01,2017-04-26 17:32:00,
2017-04-26 13:37:00,81.6,57.0,29.85,South,169,0.0,5.0,43,0.00,,---,0.00,VWS V14.01,2017-04-26 17:37:00,
2017-04-26 13:42:00,81.2,59.7,29.85,West,270,0.0,5.0,48,0.00,,---,0.00,VWS V14.01,2017-04-26 17:42:00,
2017-04-26 13:47:00,81.2,58.5,29.85,SSW,209,1.0,5.0,46,0.00,,---,0.00,VWS V14.01,2017-04-26 17:47:00,
2017-04-26 13:52:00,81.6,57.6,29.85,WNW,302,6.0,6.0,44,0.00,,---,0.00,VWS V14.01,2017-04-26 17:52:00,
2017-04-26 13:57:00,81.8,55.8,29.84,WNW,291,1.0,5.0,41,0.00,,---,0.00,VWS V14.01,2017-04-26 17:57:00,
2017-04-26 14:02:00,81.4,56.1,29.84,South,171,2.0,5.0,42,0.00,,---,0.00,VWS V14.01,2017-04-26 18:02:00,
2017-04-26 14:07:00,82.0,57.3,29.84,SW,222,0.0,5.0,43,0.00,,---,0.00,VWS V14.01,2017-04-26 18:07:00,
2017-04-26 14:12:00,83.0,58.2,29.83,NW,308,1.0,5.0,43,0.00,,---,0.00,VWS V14.01,2017-04-26 18:12:00,
2017-04-26 14:17:00,82.2,59.4,29.83,SSE,167,2.0,5.0,46,0.00,,---,0.00,VWS V14.01,2017-04-26 18:17:00,
2017-04-26 14:22:00,82.8,56.7,29.83,SSE,165,2.0,5.0,41,0.00,,---,0.00,VWS V14.01,2017-04-26 18:22:00,
2017-04-26 14:27:00,82.2,57.5,29.83,SSE,164,0.0,2.0,43,0.00,,---,0.00,VWS V14.01,2017-04-26 18:27:00,
2017-04-26 14:32:00,82.6,57.2,29.83,SSE,151,5.0,5.0,42,0.00,,---,0.00,VWS V14.01,2017-04-26 18:32:00,
2017-04-26 14:37:00,83.2,54.2,29.83,SSE,151,1.0,5.0,37,0.00,,---,0.00,VWS V14.01,2017-04-26 18:37:00,
2017-04-26 14:42:00,82.8,56.7,29.82,North,0,0.0,5.0,41,0.00,,---,0.00,VWS V14.01,2017-04-26 18:42:00,
2017-04-26 14:47:00,83.0,56.2,29.82,SSW,193,1.0,5.0,40,0.00,,---,0.00,VWS V14.01,2017-04-26 18:47:00,
2017-04-26 14:52:00,83.6,56.0,29.82,WNW,284,1.0,5.0,39,0.00,,---,0.00,VWS V14.01,2017-04-26 18:52:00,
2017-04-26 14:57:00,82.8,63.9,29.82,NW,311,1.0,6.0,53,0.00,,---,0.00,VWS V14.01,2017-04-26 18:57:00,
2017-04-26 15:02:00,82.8,66.0,29.82,South,186,1.0,6.0,57,0.00,,---,0.00,VWS V14.01,2017-04-26 19:02:00,
2017-04-26 15:06:00,82.4,63.6,29.82,North,0,3.0,6.0,53,0.00,,---,0.00,VWS V14.01,2017-04-26 19:06:00,
2017-04-26 15:11:00,82.4,63.6,29.82,WNW,289,2.0,7.0,53,0.00,,---,0.00,VWS V14.01,2017-04-26 19:11:00,
2017-04-26 15:16:00,81.8,63.5,29.82,SSW,195,0.0,7.0,54,0.00,,---,0.00,VWS V14.01,2017-04-26 19:16:00,
2017-04-26 15:21:00,81.6,63.9,29.82,ENE,78,1.0,7.0,55,0.00,,---,0.00,VWS V14.01,2017-04-26 19:21:00,
2017-04-26 15:26:00,81.4,63.2,29.81,SSW,196,0.0,5.0,54,0.00,,---,0.00,VWS V14.01,2017-04-26 19:26:00,
2017-04-26 15:31:00,81.2,64.5,29.81,NE,40,1.0,5.0,57,0.00,,---,0.00,VWS V14.01,2017-04-26 19:31:00,
2017-04-26 15:36:00,80.9,63.8,29.81,NE,52,1.0,6.0,56,0.00,,---,0.00,VWS V14.01,2017-04-26 19:36:00,
2017-04-26 15:41:00,80.9,63.2,29.80,ENE,72,1.0,6.0,55,0.00,,---,0.00,VWS V14.01,2017-04-26 19:41:00,
2017-04-26 15:46:00,80.9,62.7,29.80,South,184,1.0,6.0,54,0.00,,---,0.00,VWS V14.01,2017-04-26 19:46:00,
2017-04-26 15:51:00,80.7,63.0,29.80,ENE,64,1.0,6.0,55,0.00,,---,0.00,VWS V14.01,2017-04-26 19:51:00,
2017-04-26 15:56:00,80.7,63.0,29.80,SE,130,2.0,5.0,55,0.00,,---,0.00,VWS V14.01,2017-04-26 19:56:00,
2017-04-26 16:01:00,80.5,61.8,29.80,ESE,120,0.0,5.0,53,0.00,,---,0.00,VWS V14.01,2017-04-26 20:01:00,
2017-04-26 16:06:00,80.1,62.5,29.80,SSE,157,2.0,6.0,55,0.00,,---,0.00,VWS V14.01,2017-04-26 20:06:00,
2017-04-26 16:11:00,79.9,61.3,29.80,SSW,198,1.0,6.0,53,0.00,,---,0.00,VWS V14.01,2017-04-26 20:11:00,
2017-04-26 16:16:00,79.8,62.2,29.80,ESE,112,1.0,6.0,55,0.00,,---,0.00,VWS V14.01,2017-04-26 20:16:00,
2017-04-26 16:21:00,79.6,62.0,29.80,South,179,2.0,6.0,55,0.00,,---,0.00,VWS V14.01,2017-04-26 20:21:00,
2017-04-26 16:26:00,79.9,61.8,29.80,NNE,25,2.0,5.0,54,0.00,,---,0.00,VWS V14.01,2017-04-26 20:26:00,
2017-04-26 16:31:00,80.3,63.2,29.80,SSE,150,0.0,5.0,56,0.00,,---,0.00,VWS V14.01,2017-04-26 20:31:00,
2017-04-26 16:36:00,80.5,62.9,29.80,SE,136,1.0,5.0,55,0.00,,---,0.00,VWS V14.01,2017-04-26 20:36:00,
2017-04-26 16:41:00,80.1,63.5,29.80,East,89,0.0,5.0,57,0.00,,---,0.00,VWS V14.01,2017-04-26 20:41:00,
2017-04-26 16:46:00,80.1,62.0,29.80,SSE,155,1.0,5.0,54,0.00,,---,0.00,VWS V14.01,2017-04-26 20:46:00,
2017-04-26 16:51:00,79.9,62.3,29.80,SE,140,2.0,5.0,55,0.00,,---,0.00,VWS V14.01,2017-04-26 20:51:00,
2017-04-26 16:56:00,79.6,61.5,29.80,SSE,154,0.0,2.0,54,0.00,,---,0.00,VWS V14.01,2017-04-26 20:56:00,
2017-04-26 17:01:00,79.6,62.5,29.80,East,85,2.0,4.0,56,0.00,,---,0.00,VWS V14.01,2017-04-26 21:01:00,
2017-04-26 17:06:00,79.4,62.3,29.80,SSW,198,0.0,4.0,56,0.00,,---,0.00,VWS V14.01,2017-04-26 21:06:00,
2017-04-26 17:11:00,79.4,63.3,29.80,SE,124,0.0,4.0,58,0.00,,---,0.00,VWS V14.01,2017-04-26 21:11:00,
2017-04-26 17:16:00,79.6,62.5,29.80,ESE,102,2.0,4.0,56,0.00,,---,0.00,VWS V14.01,2017-04-26 21:16:00,
2017-04-26 17:21:00,79.2,62.2,29.80,ENE,59,2.0,5.0,56,0.00,,---,0.00,VWS V14.01,2017-04-26 21:21:00,
2017-04-26 17:26:00,78.8,62.3,29.80,SE,127,0.0,3.0,57,0.00,,---,0.00,VWS V14.01,2017-04-26 21:26:00,
2017-04-26 17:31:00,78.6,62.1,29.80,ESE,113,1.0,3.0,57,0.00,,---,0.00,VWS V14.01,2017-04-26 21:31:00,
2017-04-26 17:36:00,78.3,62.3,29.80,ESE,109,0.0,5.0,58,0.00,,---,0.00,VWS V14.01,2017-04-26 21:36:00,
2017-04-26 17:41:00,77.9,62.0,29.81,SW,222,1.0,7.0,58,0.00,,---,0.00,VWS V14.01,2017-04-26 21:41:00,
2017-04-26 17:46:00,77.6,61.7,29.81,South,175,0.0,7.0,58,0.00,,---,0.00,VWS V14.01,2017-04-26 21:46:00,
2017-04-26 17:51:00,77.4,62.4,29.81,SSE,168,2.0,7.0,60,0.00,,---,0.00,VWS V14.01,2017-04-26 21:51:00,
2017-04-26 17:56:00,77.2,61.8,29.81,South,175,1.0,3.0,59,0.00,,---,0.00,VWS V14.01,2017-04-26 21:56:00,
2017-04-26 18:01:00,77.0,62.5,29.81,ENE,64,0.0,3.0,61,0.00,,---,0.00,VWS V14.01,2017-04-26 22:01:00,
2017-04-26 18:06:00,76.8,62.3,29.81,South,184,1.0,5.0,61,0.00,,---,0.00,VWS V14.01,2017-04-26 22:06:00,
2017-04-26 18:11:00,76.7,61.8,29.81,East,82,1.0,5.0,60,0.00,,---,0.00,VWS V14.01,2017-04-26 22:11:00,
2017-04-26 18:16:00,76.5,61.6,29.81,SE,126,0.0,5.0,60,0.00,,---,0.00,VWS V14.01,2017-04-26 22:16:00,
2017-04-26 18:21:00,76.1,62.2,29.81,South,172,1.0,5.0,62,0.00,,---,0.00,VWS V14.01,2017-04-26 22:21:00,
2017-04-26 18:26:00,75.8,62.3,29.81,South,172,1.0,2.0,63,0.00,,---,0.00,VWS V14.01,2017-04-26 22:26:00,
2017-04-26 18:31:00,75.8,62.3,29.81,SSE,154,0.0,3.0,63,0.00,,---,0.00,VWS V14.01,2017-04-26 22:31:00,
2017-04-26 18:36:00,75.6,61.7,29.81,ESE,110,1.0,3.0,62,0.00,,---,0.00,VWS V14.01,2017-04-26 22:36:00,
2017-04-26 18:41:00,75.6,62.1,29.82,SSE,168,3.0,5.0,63,0.00,,---,0.00,VWS V14.01,2017-04-26 22:41:00,
2017-04-26 18:46:00,75.4,61.9,29.82,SE,143,0.0,5.0,63,0.00,,---,0.00,VWS V14.01,2017-04-26 22:46:00,
2017-04-26 18:51:00,75.4,62.4,29.82,SSW,199,1.0,5.0,64,0.00,,---,0.00,VWS V14.01,2017-04-26 22:51:00,
2017-04-26 18:56:00,75.1,61.7,29.82,South,175,0.0,6.0,63,0.00,,---,0.00,VWS V14.01,2017-04-26 22:56:00,
2017-04-26 19:01:00,74.9,62.3,29.82,SSE,162,1.0,6.0,65,0.00,,---,0.00,VWS V14.01,2017-04-26 23:01:00,
2017-04-26 19:06:00,74.7,62.2,29.82,South,179,3.0,6.0,65,0.00,,---,0.00,VWS V14.01,2017-04-26 23:06:00,